SCP
0 0 0 0 0 0 0 0 0 0 0 0 0 0 0 0 0 0 0 0 1 3 4 3 3 2 2 1 1 1 0 0 0 0 0 0 0 0 0 0 0 0 0 0
0 0 0 0 0 0 0 0 0 0 0 0 0 0 0 0 1 1 1 0 0 4 3 2 3 2 2 1 1 1 0 0 0 0 0 0 0 0 0 0 0 0 0 0
0 0 0 0 0 0 0 0 0 0 0 0 0 0 0 1 1 1 0 0 1 3 3 3 4 3 2 1 1 0 0 0 0 0 0 0 0 0 0 0 0 0 0 0
0 0 0 0 0 0 0 0 0 0 0 0 0 1 1 1 1 1 1 1 1 2 4 2 4 3 2 1 1 0 0 0 0 0 0 0 0 0 0 0 0 0 0 0
0 0 0 0 0 0 0 0 0 0 0 0 0 1 1 1 1 1 1 1 1 3 3 4 3 2 1 1 1 0 0 0 0 0 0 0 0 0 0 0 0 0 0 0
0 0 0 0 0 0 0 0 0 0 0 1 1 1 0 0 0 1 1 1 1 2 4 4 2 1 1 1 0 0 0 0 0 0 0 0 0 0 0 0 0 0 0 0
0 0 0 0 0 0 0 0 0 0 0 0 0 0 0 0 0 0 1 0 1 2 2 2 2 1 1 1 0 0 0 0 0 0 0 0 0 0 0 0 0 0 0 0
0 0 0 0 0 0 0 0 0 0 0 0 0 0 0 0 0 0 0 0 0 1 2 2 1 1 1 1 1 0 0 0 0 0 0 0 0 0 0 0 0 0 0 0
0 0 0 0 0 0 0 0 0 0 0 0 0 0 0 0 0 0 0 0 0 1 1 1 1 0 1 0 0 0 0 0 0 0 0 0 0 0 0 0 0 0 0 0
0 0 0 0 0 0 0 0 0 0 0 0 0 0 0 0 0 0 0 1 0 0 0 1 1 1 0 0 0 0 0 0 0 0 0 0 0 0 0 0 0 0 0 0
0 0 0 0 0 0 0 0 0 0 0 0 0 0 0 0 0 0 0 1 1 1 1 1 0 0 0 0 0 0 0 0 0 0 0 0 0 0 0 0 0 0 0 0
0 0 0 0 0 0 0 0 0 0 0 0 0 0 0 0 0 0 0 1 1 1 0 0 0 0 0 0 0 0 0 0 0 0 0 0 0 0 0 0 0 0 0 0
0 0 0 0 0 0 0 0 0 0 0 0 0 0 0 0 0 0 0 1 0 0 0 0 0 0 0 0 0 0 0 0 0 0 0 0 0 0 0 0 0 0 0 0
0 0 0 0 0 0 0 0 0 0 0 0 0 0 0 0 0 0 0 0 0 0 0 0 0 0 0 0 0 0 0 0 0 0 0 0 0 0 0 0 0 0 0 0
0 0 0 0 0 0 0 0 0 0 0 0 0 0 0 0 0 0 0 0 0 0 0 0 0 0 0 0 0 0 0 0 0 0 0 0 0 0 0 0 0 0 0 0
0 0 0 0 0 0 0 0 0 0 0 0 0 0 0 0 0 0 0 0 0 0 0 0 0 0 0 0 0 0 0 0 0 0 0 0 0 0 0 0 0 0 0 0
0 0 0 -0 0 0 0 0 0 0 0 0 0 0 0 0 0 0 0 0 0 0 0 0 0 0 0 0 -0 0 0 0 0 0 0 0 0 0 0 0 0 0 0 0
0 0 0 0 0 -0 -0 0 -0 -0 -0 0 0 0 0 0 0 0 0 0 0 0 0 0 0 0 0 0 0 0 0 0 0 0 0 0 0 0 0 0 0 0 0 0
0 0 0 0 0 0 -0 -0 0 0 0 0 0 0 0 0 0 0 0 0 0 0 0 0 0 0 0 0 0 0 0 0 0 0 0 0 0 0 0 0 0 0 0 0
0 0 0 -0 -0 -0 -0 0 0 0 0 0 0 0 0 0 0 0 0 0 0 0 0 0 0 0 0 0 0 0 0 0 0 0 0 0 0 0 0 0 0 0 0 0
-0 -0 -0 -0 -0 -0 0 0 0 0 0 0 0 0 0 0 0 0 0 0 0 0 0 0 0 0 0 0 0 0 0 0 0 0 0 0 0 0 0 0 0 0 0 0
-0 -0 -0 -0 -0 0 0 0 0 0 0 -0 0 0 0 0 0 0 0 0 0 0 0 0 0 0 0 0 0 0 0 0 0 0 0 0 0 0 0 0 0 0 0 0
0 0 -0 -0 -0 -0 -0 -0 0 0 -0 -0 -0 0 0 0 0 0 0 0 0 0 0 0 0 0 0 0 0 -0 -0 -0 -0 0 0 0 0 0 0 0 0 0 0 0
-0 0 0 0 -0 0 -0 0 0 0 -0 -0 -0 -0 0 0 0 0 0 0 0 0 0 0 0 0 0 0 -0 -0 -0 -0 0 0 0 0 0 0 0 0 0 0 0 0
-0 -0 0 0 0 0 0 0 0 -0 -0 -0 0 0 0 0 0 0 0 0 0 0 0 0 0 0 0 -0 -0 -0 -0 -0 0 0 0 0 0 0 0 0 0 0 0 0
-0 0 -0 -0 -0 -0 -0 0 0 0 0 -0 0 0 0 0 0 0 0 0 -0 0 0 0 0 0 0 -0 -0 -0 -0 0 0 0 0 0 0 0 0 0 0 0 0 0
-0 0 -0 -0 -0 0 -0 -0 -0 -0 -0 0 0 -0 -0 -0 -0 0 0 0 0 0 0 0 0 0 0 -0 -0 -0 -0 0 0 0 0 0 0 0 0 0 0 0 0 0
Wind_Speed_500mb
36 44 47 43 41 36 36 31 27 28 35 32 26 21 36 42 46 46 40 43 25 30 35 33 39 40 40 38 35 39 33 34 33 25 20 18 18 18 12 18 20 23 24 26
39 41 48 52 46 43 39 43 43 40 37 32 43 43 42 45 28 35 45 65 75 36 41 38 46 45 41 37 39 41 34 32 23 19 18 19 19 16 18 17 21 24 29 27
34 35 44 45 36 41 43 45 46 40 34 33 33 30 33 29 36 39 45 54 65 26 39 44 47 44 42 41 45 32 33 23 22 22 18 19 15 15 16 22 25 28 28 27
27 31 44 32 39 40 38 42 39 38 28 23 22 46 55 46 41 42 47 52 59 49 33 38 39 41 43 45 40 33 29 26 23 20 16 17 18 18 21 22 26 26 30 29
24 29 40 43 38 41 37 30 26 19 20 25 31 14 47 50 50 51 42 44 45 39 18 35 40 47 46 42 33 30 26 27 22 19 16 18 15 18 21 24 26 28 26 29
25 30 33 29 22 50 34 13 36 31 24 34 33 17 25 56 50 48 48 39 37 28 9 34 43 45 45 35 30 29 26 22 23 15 16 15 17 21 24 23 21 25 31 27
25 26 26 28 50 27 19 5 21 26 26 23 19 24 41 47 50 49 46 37 34 20 18 27 40 41 39 33 31 26 23 29 17 16 17 14 20 18 20 22 24 27 34 38
19 26 33 37 37 31 12 10 13 24 18 19 22 30 37 43 50 56 54 26 23 16 19 22 34 35 29 31 29 32 32 16 18 10 6 12 17 18 22 25 32 35 32 29
13 10 51 47 38 30 14 16 19 19 25 24 31 36 39 40 43 47 53 29 5 6 13 21 24 23 33 35 36 34 19 13 7 2 8 15 18 23 27 30 29 29 35 39
25 31 33 35 20 30 48 52 35 16 23 29 37 40 44 43 40 41 51 15 7 5 15 16 25 30 35 34 29 21 17 12 7 3 14 21 23 15 24 29 31 31 33 29
34 37 45 43 36 38 50 49 42 41 35 40 44 47 44 41 39 47 45 21 9 14 18 31 35 32 36 30 27 22 17 12 8 6 15 25 24 25 29 28 31 26 27 25
27 44 49 50 60 63 58 56 52 51 55 50 50 50 45 40 42 50 48 25 19 20 25 35 39 35 32 29 25 20 10 5 1 1 6 14 21 23 28 33 22 24 21 22
54 60 64 60 60 58 62 61 57 55 54 54 50 48 43 45 45 51 50 21 23 26 33 41 35 35 32 28 23 21 20 13 3 11 12 14 20 24 29 27 27 21 35 39
69 68 63 62 63 67 69 68 64 62 61 63 60 52 50 46 44 46 43 27 26 26 36 40 34 30 29 26 27 12 9 9 12 6 9 17 19 24 26 28 20 32 36 38
56 60 68 72 74 71 65 63 61 61 61 59 56 52 44 43 48 53 43 31 37 40 45 38 39 38 30 24 19 20 7 7 5 9 11 18 20 23 25 22 23 21 31 42
51 55 57 60 64 66 69 68 60 58 58 57 50 47 44 45 52 55 41 40 39 53 44 44 37 32 26 22 18 10 6 14 17 17 14 18 21 24 24 24 26 29 42 51
68 60 56 58 61 56 56 55 61 64 59 45 47 62 54 51 52 47 47 44 49 54 46 36 31 30 27 26 19 10 14 20 14 13 17 21 21 24 24 27 25 29 39 51
45 54 45 49 58 61 64 68 72 75 71 55 61 55 46 47 47 51 49 56 55 48 40 35 36 31 38 28 21 12 9 7 9 17 17 21 23 20 25 28 27 29 47 44
42 48 50 58 59 65 77 88 89 78 71 60 54 49 43 48 42 65 61 67 63 57 44 37 41 37 30 29 21 16 12 12 14 19 19 21 23 24 24 24 28 41 43 42
47 48 54 58 61 72 66 60 62 70 63 55 47 39 42 44 74 73 79 72 65 55 45 48 41 40 35 28 21 14 15 16 18 18 22 21 21 22 24 28 33 44 40 42
49 55 60 63 72 53 59 67 60 55 63 58 60 51 68 75 84 84 80 70 49 53 47 42 49 46 37 21 22 19 17 20 20 20 21 21 22 21 24 29 40 41 41 42
59 56 54 35 42 32 31 29 32 12 46 80 95 95 96 92 85 78 67 72 65 51 43 44 40 39 30 30 26 23 23 22 20 21 23 20 20 20 26 31 43 40 41 41
57 35 14 13 5 13 26 31 45 66 98 102 104 103 99 91 79 84 81 64 48 49 44 44 43 35 30 28 27 25 24 23 22 22 22 19 19 22 26 30 44 43 42 41
27 18 23 33 40 54 67 73 76 85 98 101 99 100 95 92 81 68 54 46 42 47 47 47 40 36 29 27 24 26 26 23 21 21 20 19 18 22 24 26 44 50 45 43
32 28 28 40 60 61 72 77 85 85 89 89 85 78 74 72 74 62 53 48 51 52 54 47 37 32 31 28 26 26 26 25 26 20 19 17 19 19 21 24 39 49 50 46
26 21 39 50 60 60 60 61 66 69 77 82 76 71 67 62 62 58 56 53 58 51 42 36 37 35 31 27 26 24 26 25 21 20 20 18 18 23 25 27 32 46 50 47
23 31 35 38 39 42 51 59 61 63 62 62 63 65 65 57 56 60 56 45 40 40 38 40 35 33 31 31 29 27 25 23 20 23 22 20 19 24 27 29 30 42 47 47
Wind_Direction_500mb
278 284 291 287 281 280 287 289 284 285 296 305 317 315 321 317 298 288 339 320 234 176 188 192 205 204 208 210 201 204 195 201 219 219 214 230 240 252 266 260 281 280 287 289
281 282 280 279 281 284 280 279 275 277 277 286 290 286 281 289 2 6 355 343 339 193 189 195 198 212 212 204 198 202 193 210 213 215 223 230 244 250 262 278 277 279 285 293
275 288 284 270 272 269 269 267 270 273 283 289 287 296 291 43 30 10 360 353 341 201 184 190 196 206 203 204 206 200 205 197 213 219 226 242 259 254 263 273 280 297 306 305
276 278 269 278 280 283 279 276 274 276 301 310 49 56 46 34 22 14 2 353 343 344 186 185 198 200 196 198 204 208 194 199 208 223 227 239 244 253 278 292 293 307 301 306
258 261 271 280 289 293 296 293 298 337 344 346 6 3 48 20 12 6 3 349 341 341 204 175 189 192 194 198 206 192 194 200 206 219 227 238 256 268 276 289 295 305 324 309
258 272 278 287 295 344 325 259 22 16 22 13 353 311 23 357 0 354 352 350 337 330 216 196 193 188 188 191 191 190 201 198 210 214 228 238 253 266 282 300 321 307 314 327
239 253 274 279 294 327 283 29 15 12 4 25 9 349 338 348 346 345 345 345 340 321 248 203 187 189 189 183 183 190 194 208 200 218 237 257 281 305 306 318 315 342 323 327
241 253 267 301 279 313 51 16 353 347 351 353 339 334 335 338 336 330 332 342 352 313 262 208 196 191 178 169 181 188 201 194 213 224 223 254 286 309 338 347 338 325 342 346
284 274 306 314 319 329 315 309 323 344 347 337 327 322 322 323 320 322 317 322 349 286 181 189 189 187 166 178 192 199 190 181 200 212 304 297 312 330 332 337 336 334 335 334
287 279 277 285 311 310 304 327 328 326 315 320 317 315 313 311 316 316 312 324 327 219 184 208 185 179 184 188 192 179 167 183 207 276 350 336 353 344 320 319 318 315 325 327
294 299 299 299 313 320 328 327 324 323 314 307 304 303 306 308 312 307 302 271 209 198 198 182 186 182 186 198 197 177 187 170 147 77 332 333 328 322 328 324 319 323 319 311
282 303 303 303 308 307 310 307 304 300 297 296 296 296 295 302 309 308 301 248 185 181 203 195 192 189 193 202 184 179 161 136 306 322 57 336 326 337 340 339 335 325 336 347
274 281 280 291 292 292 294 294 291 286 286 288 291 292 290 297 302 301 309 224 206 199 206 187 183 188 188 182 172 154 181 195 95 24 1 340 341 348 353 1 337 358 357 353
284 289 289 286 285 282 282 282 279 279 279 281 283 283 281 285 293 291 297 225 200 201 196 184 189 173 166 178 171 190 150 120 95 354 2 355 354 356 357 358 358 360 357 342
270 269 269 269 268 265 267 272 275 276 275 274 276 280 275 277 285 279 290 218 178 184 183 177 166 171 178 175 143 129 102 172 130 34 13 11 2 3 2 353 13 0 330 325
281 283 288 286 282 277 274 270 278 279 270 268 272 275 270 272 280 271 274 193 189 180 178 173 180 176 152 141 138 165 147 97 100 48 21 16 13 10 5 4 9 352 338 344
268 278 289 299 292 291 291 293 290 289 280 264 262 270 263 268 273 274 208 198 196 176 170 167 161 153 148 127 114 82 52 57 47 46 37 23 22 13 13 8 10 354 350 348
282 276 285 297 298 295 291 284 283 278 271 267 271 266 253 246 250 206 190 182 167 154 152 154 149 156 134 124 121 97 118 86 54 56 37 29 26 17 22 359 11 358 353 5
297 292 297 296 293 294 288 285 274 266 261 259 253 253 245 235 220 181 173 158 152 148 150 153 138 135 141 134 121 109 106 87 57 49 50 34 32 24 9 13 6 356 7 16
302 297 300 292 289 297 288 291 279 263 257 244 235 243 225 206 171 168 157 149 151 148 149 144 145 134 127 115 104 117 96 82 72 53 47 38 38 27 16 13 5 4 18 24
306 304 301 306 304 292 290 295 287 268 263 250 230 195 168 147 150 148 145 139 139 140 147 139 131 128 121 121 114 103 96 81 67 57 50 42 33 23 27 14 4 13 23 26
319 313 312 306 306 300 292 291 300 202 153 145 145 144 141 142 141 136 133 132 134 131 132 127 127 127 118 124 110 96 86 73 68 63 51 40 39 25 32 12 9 18 27 27
326 315 320 334 350 88 97 110 103 115 117 124 127 132 135 134 133 132 127 131 139 144 136 131 127 113 104 104 99 91 82 77 67 56 62 47 43 34 40 12 18 22 26 26
358 42 75 83 99 92 83 94 96 101 108 118 122 126 130 126 117 118 130 142 142 137 131 129 124 112 109 103 103 101 91 71 61 61 55 52 48 38 41 18 20 21 23 23
30 103 96 95 95 97 92 95 93 95 108 111 113 116 118 123 125 134 138 134 132 129 126 119 113 109 102 97 86 74 73 79 78 50 55 61 49 41 45 18 18 22 21 22
7 136 122 114 117 114 111 108 107 105 105 111 116 121 126 130 130 131 129 126 122 118 117 119 120 117 107 95 90 92 101 85 53 51 54 54 43 48 41 26 13 18 20 23
53 150 153 139 133 119 115 111 116 121 121 122 118 120 121 132 134 127 118 118 121 120 118 109 104 102 96 91 88 78 54 46 59 60 51 42 43 51 36 28 13 20 22 23
Wind_Speed_850mb
36 44 47 43 41 36 36 31 27 28 35 32 26 21 36 42 46 46 40 43 25 30 35 33 39 40 40 38 35 39 33 34 33 25 20 18 18 18 12 18 20 23 24 26
39 41 48 52 46 43 39 43 43 40 37 32 43 43 42 45 28 35 45 65 75 36 41 38 46 45 41 37 39 41 34 32 23 19 18 19 19 16 18 17 21 24 29 27
34 35 44 45 36 41 43 45 46 40 34 33 33 30 33 29 36 39 45 54 65 26 39 44 47 44 42 41 45 32 33 23 22 22 18 19 15 15 16 22 25 28 28 27
27 31 44 32 39 40 38 42 39 38 28 23 22 46 55 46 41 42 47 52 59 49 33 38 39 41 43 45 40 33 29 26 23 20 16 17 18 18 21 22 26 26 30 29
24 29 40 43 38 41 37 30 26 19 20 25 31 14 47 50 50 51 42 44 45 39 18 35 40 47 46 42 33 30 26 27 22 19 16 18 15 18 21 24 26 28 26 29
25 30 33 29 22 50 34 13 36 31 24 34 33 17 25 56 50 48 48 39 37 28 9 34 43 45 45 35 30 29 26 22 23 15 16 15 17 21 24 23 21 25 31 27
25 26 26 28 50 27 19 5 21 26 26 23 19 24 41 47 50 49 46 37 34 20 18 27 40 41 39 33 31 26 23 29 17 16 17 14 20 18 20 22 24 27 34 38
19 26 33 37 37 31 12 10 13 24 18 19 22 30 37 43 50 56 54 26 23 16 19 22 34 35 29 31 29 32 32 16 18 10 6 12 17 18 22 25 32 35 32 29
13 10 51 47 38 30 14 16 19 19 25 24 31 36 39 40 43 47 53 29 5 6 13 21 24 23 33 35 36 34 19 13 7 2 8 15 18 23 27 30 29 29 35 39
25 31 33 35 20 30 48 52 35 16 23 29 37 40 44 43 40 41 51 15 7 5 15 16 25 30 35 34 29 21 17 12 7 3 14 21 23 15 24 29 31 31 33 29
34 37 45 43 36 38 50 49 42 41 35 40 44 47 44 41 39 47 45 21 9 14 18 31 35 32 36 30 27 22 17 12 8 6 15 25 24 25 29 28 31 26 27 25
27 44 49 50 60 63 58 56 52 51 55 50 50 50 45 40 42 50 48 25 19 20 25 35 39 35 32 29 25 20 10 5 1 1 6 14 21 23 28 33 22 24 21 22
54 60 64 60 60 58 62 61 57 55 54 54 50 48 43 45 45 51 50 21 23 26 33 41 35 35 32 28 23 21 20 13 3 11 12 14 20 24 29 27 27 21 35 39
69 68 63 62 63 67 69 68 64 62 61 63 60 52 50 46 44 46 43 27 26 26 36 40 34 30 29 26 27 12 9 9 12 6 9 17 19 24 26 28 20 32 36 38
56 60 68 72 74 71 65 63 61 61 61 59 56 52 44 43 48 53 43 31 37 40 45 38 39 38 30 24 19 20 7 7 5 9 11 18 20 23 25 22 23 21 31 42
51 55 57 60 64 66 69 68 60 58 58 57 50 47 44 45 52 55 41 40 39 53 44 44 37 32 26 22 18 10 6 14 17 17 14 18 21 24 24 24 26 29 42 51
68 60 56 58 61 56 56 55 61 64 59 45 47 62 54 51 52 47 47 44 49 54 46 36 31 30 27 26 19 10 14 20 14 13 17 21 21 24 24 27 25 29 39 51
45 54 45 49 58 61 64 68 72 75 71 55 61 55 46 47 47 51 49 56 55 48 40 35 36 31 38 28 21 12 9 7 9 17 17 21 23 20 25 28 27 29 47 44
42 48 50 58 59 65 77 88 89 78 71 60 54 49 43 48 42 65 61 67 63 57 44 37 41 37 30 29 21 16 12 12 14 19 19 21 23 24 24 24 28 41 43 42
47 48 54 58 61 72 66 60 62 70 63 55 47 39 42 44 74 73 79 72 65 55 45 48 41 40 35 28 21 14 15 16 18 18 22 21 21 22 24 28 33 44 40 42
49 55 60 63 72 53 59 67 60 55 63 58 60 51 68 75 84 84 80 70 49 53 47 42 49 46 37 21 22 19 17 20 20 20 21 21 22 21 24 29 40 41 41 42
59 56 54 35 42 32 31 29 32 12 46 80 95 95 96 92 85 78 67 72 65 51 43 44 40 39 30 30 26 23 23 22 20 21 23 20 20 20 26 31 43 40 41 41
57 35 14 13 5 13 26 31 45 66 98 102 104 103 99 91 79 84 81 64 48 49 44 44 43 35 30 28 27 25 24 23 22 22 22 19 19 22 26 30 44 43 42 41
27 18 23 33 40 54 67 73 76 85 98 101 99 100 95 92 81 68 54 46 42 47 47 47 40 36 29 27 24 26 26 23 21 21 20 19 18 22 24 26 44 50 45 43
32 28 28 40 60 61 72 77 85 85 89 89 85 78 74 72 74 62 53 48 51 52 54 47 37 32 31 28 26 26 26 25 26 20 19 17 19 19 21 24 39 49 50 46
26 21 39 50 60 60 60 61 66 69 77 82 76 71 67 62 62 58 56 53 58 51 42 36 37 35 31 27 26 24 26 25 21 20 20 18 18 23 25 27 32 46 50 47
23 31 35 38 39 42 51 59 61 63 62 62 63 65 65 57 56 60 56 45 40 40 38 40 35 33 31 31 29 27 25 23 20 23 22 20 19 24 27 29 30 42 47 47
Wind_Direction_850mb
278 284 291 287 281 280 287 289 284 285 296 305 317 315 321 317 298 288 339 320 234 176 188 192 205 204 208 210 201 204 195 201 219 219 214 230 240 252 266 260 281 280 287 289
281 282 280 279 281 284 280 279 275 277 277 286 290 286 281 289 2 6 355 343 339 193 189 195 198 212 212 204 198 202 193 210 213 215 223 230 244 250 262 278 277 279 285 293
275 288 284 270 272 269 269 267 270 273 283 289 287 296 291 43 30 10 360 353 341 201 184 190 196 206 203 204 206 200 205 197 213 219 226 242 259 254 263 273 280 297 306 305
276 278 269 278 280 283 279 276 274 276 301 310 49 56 46 34 22 14 2 353 343 344 186 185 198 200 196 198 204 208 194 199 208 223 227 239 244 253 278 292 293 307 301 306
258 261 271 280 289 293 296 293 298 337 344 346 6 3 48 20 12 6 3 349 341 341 204 175 189 192 194 198 206 192 194 200 206 219 227 238 256 268 276 289 295 305 324 309
258 272 278 287 295 344 325 259 22 16 22 13 353 311 23 357 0 354 352 350 337 330 216 196 193 188 188 191 191 190 201 198 210 214 228 238 253 266 282 300 321 307 314 327
239 253 274 279 294 327 283 29 15 12 4 25 9 349 338 348 346 345 345 345 340 321 248 203 187 189 189 183 183 190 194 208 200 218 237 257 281 305 306 318 315 342 323 327
241 253 267 301 279 313 51 16 353 347 351 353 339 334 335 338 336 330 332 342 352 313 262 208 196 191 178 169 181 188 201 194 213 224 223 254 286 309 338 347 338 325 342 346
284 274 306 314 319 329 315 309 323 344 347 337 327 322 322 323 320 322 317 322 349 286 181 189 189 187 166 178 192 199 190 181 200 212 304 297 312 330 332 337 336 334 335 334
287 279 277 285 311 310 304 327 328 326 315 320 317 315 313 311 316 316 312 324 327 219 184 208 185 179 184 188 192 179 167 183 207 276 350 336 353 344 320 319 318 315 325 327
294 299 299 299 313 320 328 327 324 323 314 307 304 303 306 308 312 307 302 271 209 198 198 182 186 182 186 198 197 177 187 170 147 77 332 333 328 322 328 324 319 323 319 311
282 303 303 303 308 307 310 307 304 300 297 296 296 296 295 302 309 308 301 248 185 181 203 195 192 189 193 202 184 179 161 136 306 322 57 336 326 337 340 339 335 325 336 347
274 281 280 291 292 292 294 294 291 286 286 288 291 292 290 297 302 301 309 224 206 199 206 187 183 188 188 182 172 154 181 195 95 24 1 340 341 348 353 1 337 358 357 353
284 289 289 286 285 282 282 282 279 279 279 281 283 283 281 285 293 291 297 225 200 201 196 184 189 173 166 178 171 190 150 120 95 354 2 355 354 356 357 358 358 360 357 342
270 269 269 269 268 265 267 272 275 276 275 274 276 280 275 277 285 279 290 218 178 184 183 177 166 171 178 175 143 129 102 172 130 34 13 11 2 3 2 353 13 0 330 325
281 283 288 286 282 277 274 270 278 279 270 268 272 275 270 272 280 271 274 193 189 180 178 173 180 176 152 141 138 165 147 97 100 48 21 16 13 10 5 4 9 352 338 344
268 278 289 299 292 291 291 293 290 289 280 264 262 270 263 268 273 274 208 198 196 176 170 167 161 153 148 127 114 82 52 57 47 46 37 23 22 13 13 8 10 354 350 348
282 276 285 297 298 295 291 284 283 278 271 267 271 266 253 246 250 206 190 182 167 154 152 154 149 156 134 124 121 97 118 86 54 56 37 29 26 17 22 359 11 358 353 5
297 292 297 296 293 294 288 285 274 266 261 259 253 253 245 235 220 181 173 158 152 148 150 153 138 135 141 134 121 109 106 87 57 49 50 34 32 24 9 13 6 356 7 16
302 297 300 292 289 297 288 291 279 263 257 244 235 243 225 206 171 168 157 149 151 148 149 144 145 134 127 115 104 117 96 82 72 53 47 38 38 27 16 13 5 4 18 24
306 304 301 306 304 292 290 295 287 268 263 250 230 195 168 147 150 148 145 139 139 140 147 139 131 128 121 121 114 103 96 81 67 57 50 42 33 23 27 14 4 13 23 26
319 313 312 306 306 300 292 291 300 202 153 145 145 144 141 142 141 136 133 132 134 131 132 127 127 127 118 124 110 96 86 73 68 63 51 40 39 25 32 12 9 18 27 27
326 315 320 334 350 88 97 110 103 115 117 124 127 132 135 134 133 132 127 131 139 144 136 131 127 113 104 104 99 91 82 77 67 56 62 47 43 34 40 12 18 22 26 26
358 42 75 83 99 92 83 94 96 101 108 118 122 126 130 126 117 118 130 142 142 137 131 129 124 112 109 103 103 101 91 71 61 61 55 52 48 38 41 18 20 21 23 23
30 103 96 95 95 97 92 95 93 95 108 111 113 116 118 123 125 134 138 134 132 129 126 119 113 109 102 97 86 74 73 79 78 50 55 61 49 41 45 18 18 22 21 22
7 136 122 114 117 114 111 108 107 105 105 111 116 121 126 130 130 131 129 126 122 118 117 119 120 117 107 95 90 92 101 85 53 51 54 54 43 48 41 26 13 18 20 23
53 150 153 139 133 119 115 111 116 121 121 122 118 120 121 132 134 127 118 118 121 120 118 109 104 102 96 91 88 78 54 46 59 60 51 42 43 51 36 28 13 20 22 23